Time,TemperatureF,DewpointF,PressureIn,WindDirection,WindDirectionDegrees,WindSpeedMPH,WindSpeedGustMPH,Humidity,HourlyPrecipIn,Conditions,Clouds,dailyrainin,SoftwareType,DateUTC
2013-01-04 08:00:00,30.3,23.6,30.26,WSW,252,12.0,12.0,76,0.00,,,0.00,Wunderground v.1.15,2013-01-04 13:00:00,
2013-01-04 08:05:00,30.2,23.9,30.26,SW,227,11.0,13.0,77,0.00,,,0.00,Wunderground v.1.15,2013-01-04 13:05:00,
2013-01-04 08:10:00,30.2,23.9,30.26,West,277,12.0,12.0,77,0.00,,,0.00,Wunderground v.1.15,2013-01-04 13:10:00,
2013-01-04 08:15:00,30.4,24.1,30.26,SW,223,14.0,14.0,77,0.00,,,0.00,Wunderground v.1.15,2013-01-04 13:15:00,
2013-01-04 08:25:00,30.3,24.3,30.26,WSW,245,13.0,23.0,78,0.00,,,0.00,Wunderground v.1.15,2013-01-04 13:25:00,
2013-01-04 08:30:00,30.3,24.0,30.26,WSW,241,13.0,13.0,77,0.00,,,0.00,Wunderground v.1.15,2013-01-04 13:30:00,
2013-01-04 08:35:00,30.3,24.0,30.26,SW,220,13.0,17.0,77,0.00,,,0.00,Wunderground v.1.15,2013-01-04 13:35:00,
2013-01-04 08:40:00,30.3,24.0,30.25,SW,233,14.0,14.0,77,0.00,,,0.00,Wunderground v.1.15,2013-01-04 13:40:00,
2013-01-04 08:45:00,30.5,24.1,30.26,SSW,200,13.0,23.0,77,0.00,,,0.00,Wunderground v.1.15,2013-01-04 13:45:00,
2013-01-04 08:55:00,30.3,24.3,30.25,SSW,200,14.0,23.0,78,0.00,,,0.00,Wunderground v.1.15,2013-01-04 13:55:00,
2013-01-04 09:00:00,30.4,24.1,30.26,WSW,257,14.0,23.0,77,0.00,,,0.00,Wunderground v.1.15,2013-01-04 14:00:00,
2013-01-04 09:05:00,30.5,23.8,30.26,West,280,13.0,23.0,76,0.00,,,0.00,Wunderground v.1.15,2013-01-04 14:05:00,
2013-01-04 09:10:00,30.4,23.7,30.26,SW,222,13.0,23.0,76,0.00,,,0.00,Wunderground v.1.15,2013-01-04 14:10:00,
2013-01-04 09:15:00,30.3,24.0,30.26,West,266,12.0,23.0,77,0.00,,,0.00,Wunderground v.1.15,2013-01-04 14:15:00,
2013-01-04 09:20:00,30.3,24.0,30.26,SW,231,12.0,23.0,77,0.00,,,0.00,Wunderground v.1.15,2013-01-04 14:20:00,
2013-01-04 09:30:00,30.3,23.6,30.26,West,265,13.0,13.0,76,0.00,,,0.00,Wunderground v.1.15,2013-01-04 14:30:00,
2013-01-04 09:35:00,30.3,23.6,30.26,SW,227,13.0,23.0,76,0.00,,,0.00,Wunderground v.1.15,2013-01-04 14:35:00,
2013-01-04 09:40:00,30.2,23.5,30.25,SW,227,13.0,13.0,76,0.00,,,0.00,Wunderground v.1.15,2013-01-04 14:40:00,
2013-01-04 09:45:00,30.3,23.6,30.26,WSW,254,13.0,20.0,76,0.00,,,0.00,Wunderground v.1.15,2013-01-04 14:45:00,
2013-01-04 09:50:00,30.4,23.7,30.26,WSW,239,13.0,23.0,76,0.00,,,0.00,Wunderground v.1.15,2013-01-04 14:50:00,
2013-01-04 10:00:00,30.2,23.9,30.25,SE,143,14.0,14.0,77,0.00,,,0.00,Wunderground v.1.15,2013-01-04 15:00:00,
2013-01-04 10:05:00,30.1,23.4,30.25,WSW,258,13.0,23.0,76,0.00,,,0.00,Wunderground v.1.15,2013-01-04 15:05:00,
2013-01-04 10:10:00,30.1,23.4,30.25,NW,307,13.0,23.0,76,0.00,,,0.00,Wunderground v.1.15,2013-01-04 15:10:00,
2013-01-04 10:15:00,30.0,23.4,30.25,SW,216,13.0,23.0,76,0.00,,,0.00,Wunderground v.1.15,2013-01-04 15:15:00,
2013-01-04 10:20:00,30.0,23.4,30.24,SSW,198,13.0,23.0,76,0.00,,,0.00,Wunderground v.1.15,2013-01-04 15:20:00,
2013-01-04 10:25:00,29.9,23.3,30.23,WSW,244,13.0,23.0,76,0.00,,,0.00,Wunderground v.1.15,2013-01-04 15:25:00,
2013-01-04 10:30:00,29.9,23.3,30.23,WSW,239,12.0,12.0,76,0.00,,,0.00,Wunderground v.1.15,2013-01-04 15:30:00,
2013-01-04 10:35:00,30.0,23.4,30.22,SW,217,14.0,18.0,76,0.00,,,0.00,Wunderground v.1.15,2013-01-04 15:35:00,
2013-01-04 10:40:00,30.0,23.7,30.23,West,263,15.0,15.0,77,0.00,,,0.00,Wunderground v.1.15,2013-01-04 15:40:00,
2013-01-04 10:45:00,30.2,23.5,30.23,WSW,244,15.0,23.0,76,0.00,,,0.00,Wunderground v.1.15,2013-01-04 15:45:00,
2013-01-04 10:50:00,30.3,23.6,30.22,SSW,201,14.0,14.0,76,0.00,,,0.00,Wunderground v.1.15,2013-01-04 15:50:00,
2013-01-04 10:55:00,30.3,23.3,30.22,WSW,244,12.0,23.0,75,0.00,,,0.00,Wunderground v.1.15,2013-01-04 15:55:00,
2013-01-04 11:05:00,30.3,23.3,30.22,West,277,13.0,23.0,75,0.00,,,0.00,Wunderground v.1.15,2013-01-04 16:05:00,
2013-01-04 11:10:00,30.5,23.2,30.22,SSW,212,13.0,13.0,74,0.00,,,0.00,Wunderground v.1.15,2013-01-04 16:10:00,
2013-01-04 11:15:00,30.5,22.9,30.23,SW,223,11.0,23.0,73,0.00,,,0.00,Wunderground v.1.15,2013-01-04 16:15:00,
2013-01-04 11:20:00,30.7,23.1,30.22,SSW,209,10.0,23.0,73,0.00,,,0.00,Wunderground v.1.15,2013-01-04 16:20:00,
2013-01-04 11:25:00,31.1,23.5,30.22,SW,234,10.0,23.0,73,0.00,,,0.00,Wunderground v.1.15,2013-01-04 16:25:00,
2013-01-04 11:30:00,31.5,23.5,30.22,WSW,245,10.0,23.0,72,0.00,,,0.00,Wunderground v.1.15,2013-01-04 16:30:00,
2013-01-04 11:35:00,31.4,23.1,30.22,WNW,286,10.0,23.0,71,0.00,,,0.00,Wunderground v.1.15,2013-01-04 16:35:00,
2013-01-04 11:40:00,31.3,23.0,30.22,WSW,252,10.0,23.0,71,0.00,,,0.00,Wunderground v.1.15,2013-01-04 16:40:00,
2013-01-04 11:45:00,31.2,22.5,30.22,SW,236,10.0,23.0,70,0.00,,,0.00,Wunderground v.1.15,2013-01-04 16:45:00,
2013-01-04 11:50:00,31.1,22.8,30.22,WSW,257,10.0,10.0,71,0.00,,,0.00,Wunderground v.1.15,2013-01-04 16:50:00,
2013-01-04 11:55:00,31.2,22.5,30.22,WSW,253,10.0,12.0,70,0.00,,,0.00,Wunderground v.1.15,2013-01-04 16:55:00,
2013-01-04 12:00:00,31.7,23.0,30.22,SW,228,10.0,13.0,70,0.00,,,0.00,Wunderground v.1.15,2013-01-04 17:00:00,
2013-01-04 12:10:00,32.6,23.2,30.22,West,281,13.0,15.0,68,0.00,,,0.00,Wunderground v.1.15,2013-01-04 17:10:00,
2013-01-04 12:15:00,32.5,22.8,30.21,West,264,14.0,15.0,67,0.00,,,0.00,Wunderground v.1.15,2013-01-04 17:15:00,
2013-01-04 12:20:00,32.3,22.6,30.21,SSW,211,13.0,14.0,67,0.00,,,0.00,Wunderground v.1.15,2013-01-04 17:20:00,
2013-01-04 12:25:00,31.9,22.5,30.21,West,263,13.0,14.0,68,0.00,,,0.00,Wunderground v.1.15,2013-01-04 17:25:00,
2013-01-04 12:30:00,31.8,22.4,30.21,SW,231,12.0,12.0,68,0.00,,,0.00,Wunderground v.1.15,2013-01-04 17:30:00,
2013-01-04 12:40:00,31.9,22.5,30.21,WSW,253,10.0,11.0,68,0.00,,,0.00,Wunderground v.1.15,2013-01-04 17:40:00,
2013-01-04 12:45:00,31.8,22.1,30.20,WSW,242,10.0,12.0,67,0.00,,,0.00,Wunderground v.1.15,2013-01-04 17:45:00,
2013-01-04 12:50:00,31.6,21.9,30.21,WSW,239,11.0,11.0,67,0.00,,,0.00,Wunderground v.1.15,2013-01-04 17:50:00,
2013-01-04 12:55:00,31.5,21.8,30.20,WSW,237,11.0,11.0,67,0.00,,,0.00,Wunderground v.1.15,2013-01-04 17:55:00,
2013-01-04 13:00:00,31.4,21.7,30.20,SW,225,9.0,12.0,67,0.00,,,0.00,Wunderground v.1.15,2013-01-04 18:00:00,
2013-01-04 13:05:00,31.4,22.1,30.20,WSW,249,9.0,20.0,68,0.00,,,0.00,Wunderground v.1.15,2013-01-04 18:05:00,
2013-01-04 13:15:00,31.2,21.9,30.19,WSW,241,10.0,20.0,68,0.00,,,0.00,Wunderground v.1.15,2013-01-04 18:15:00,
2013-01-04 13:20:00,31.3,22.0,30.19,WSW,251,9.0,9.0,68,0.00,,,0.00,Wunderground v.1.15,2013-01-04 18:20:00,
2013-01-04 13:25:00,31.4,21.7,30.19,SW,229,7.0,11.0,67,0.00,,,0.00,Wunderground v.1.15,2013-01-04 18:25:00,
2013-01-04 13:30:00,31.4,21.3,30.19,SW,232,8.0,8.0,66,0.00,,,0.00,Wunderground v.1.15,2013-01-04 18:30:00,
2013-01-04 13:35:00,31.3,20.9,30.19,WSW,248,10.0,12.0,65,0.00,,,0.00,Wunderground v.1.15,2013-01-04 18:35:00,
2013-01-04 13:45:00,30.8,20.4,30.19,WSW,240,10.0,20.0,65,0.00,,,0.00,Wunderground v.1.15,2013-01-04 18:45:00,
2013-01-04 13:50:00,30.6,20.2,30.18,West,261,10.0,20.0,65,0.00,,,0.00,Wunderground v.1.15,2013-01-04 18:50:00,
2013-01-04 13:55:00,31.0,20.6,30.18,West,271,10.0,20.0,65,0.00,,,0.00,Wunderground v.1.15,2013-01-04 18:55:00,
2013-01-04 14:00:00,31.6,21.2,30.18,WSW,252,10.0,10.0,65,0.00,,,0.00,Wunderground v.1.15,2013-01-04 19:00:00,
2013-01-04 14:05:00,31.7,20.9,30.18,West,278,10.0,20.0,64,0.00,,,0.00,Wunderground v.1.15,2013-01-04 19:05:00,
2013-01-04 14:10:00,31.9,20.7,30.18,WSW,238,9.0,9.0,63,0.00,,,0.00,Wunderground v.1.15,2013-01-04 19:10:00,
2013-01-04 14:20:00,32.2,21.4,30.18,WSW,246,9.0,20.0,64,0.00,,,0.00,Wunderground v.1.15,2013-01-04 19:20:00,
2013-01-04 14:25:00,32.4,21.2,30.18,SSW,209,9.0,20.0,63,0.00,,,0.00,Wunderground v.1.15,2013-01-04 19:25:00,
2013-01-04 14:30:00,32.7,21.5,30.17,WSW,255,9.0,20.0,63,0.00,,,0.00,Wunderground v.1.15,2013-01-04 19:30:00,
2013-01-04 14:35:00,32.7,21.1,30.18,West,260,9.0,20.0,62,0.00,,,0.00,Wunderground v.1.15,2013-01-04 19:35:00,
2013-01-04 14:40:00,32.6,21.4,30.18,WSW,257,8.0,8.0,63,0.00,,,0.00,Wunderground v.1.15,2013-01-04 19:40:00,
2013-01-04 14:50:00,32.5,21.3,30.18,West,259,7.0,7.0,63,0.00,,,0.00,Wunderground v.1.15,2013-01-04 19:50:00,
2013-01-04 14:55:00,32.8,21.6,30.18,WSW,240,6.0,20.0,63,0.00,,,0.00,Wunderground v.1.15,2013-01-04 19:55:00,
2013-01-04 15:00:00,33.0,21.0,30.18,SW,231,6.0,6.0,61,0.00,,,0.00,Wunderground v.1.15,2013-01-04 20:00:00,
2013-01-04 15:05:00,33.2,21.6,30.18,West,262,6.0,20.0,62,0.00,,,0.00,Wunderground v.1.15,2013-01-04 20:05:00,
2013-01-04 15:10:00,33.2,21.2,30.18,West,267,5.0,20.0,61,0.00,,,0.00,Wunderground v.1.15,2013-01-04 20:10:00,
2013-01-04 15:15:00,33.3,21.7,30.18,West,277,5.0,20.0,62,0.00,,,0.00,Wunderground v.1.15,2013-01-04 20:15:00,
2013-01-04 15:25:00,33.3,20.9,30.18,WSW,255,7.0,20.0,60,0.00,,,0.00,Wunderground v.1.15,2013-01-04 20:25:00,
2013-01-04 15:30:00,33.3,20.9,30.19,West,271,9.0,9.0,60,0.00,,,0.00,Wunderground v.1.15,2013-01-04 20:30:00,
2013-01-04 15:35:00,33.3,20.5,30.18,West,265,10.0,11.0,59,0.00,,,0.00,Wunderground v.1.15,2013-01-04 20:35:00,
2013-01-04 15:40:00,33.3,20.5,30.18,SW,233,10.0,10.0,59,0.00,,,0.00,Wunderground v.1.15,2013-01-04 20:40:00,
2013-01-04 15:45:00,33.4,21.0,30.18,West,265,10.0,20.0,60,0.00,,,0.00,Wunderground v.1.15,2013-01-04 20:45:00,
2013-01-04 15:55:00,33.6,20.8,30.18,WSW,257,9.0,20.0,59,0.00,,,0.00,Wunderground v.1.15,2013-01-04 20:55:00,
2013-01-04 16:00:00,33.5,20.7,30.18,SW,236,8.0,20.0,59,0.00,,,0.00,Wunderground v.1.15,2013-01-04 21:00:00,
2013-01-04 16:05:00,33.5,20.7,30.18,WSW,257,8.0,20.0,59,0.00,,,0.00,Wunderground v.1.15,2013-01-04 21:05:00,
2013-01-04 16:10:00,33.4,20.6,30.18,WSW,244,9.0,20.0,59,0.00,,,0.00,Wunderground v.1.15,2013-01-04 21:10:00,
2013-01-04 16:15:00,33.4,20.6,30.18,West,268,10.0,20.0,59,0.00,,,0.00,Wunderground v.1.15,2013-01-04 21:15:00,
2013-01-04 16:20:00,33.4,20.6,30.18,West,279,11.0,11.0,59,0.00,,,0.00,Wunderground v.1.15,2013-01-04 21:20:00,
2013-01-04 16:30:00,33.3,20.5,30.19,West,265,11.0,11.0,59,0.00,,,0.00,Wunderground v.1.15,2013-01-04 21:30:00,
2013-01-04 16:35:00,33.2,20.8,30.19,West,268,10.0,20.0,60,0.00,,,0.00,Wunderground v.1.15,2013-01-04 21:35:00,
2013-01-04 16:40:00,32.9,20.1,30.19,WSW,248,9.0,20.0,59,0.00,,,0.00,Wunderground v.1.15,2013-01-04 21:40:00,
2013-01-04 16:45:00,32.7,20.3,30.19,West,263,9.0,20.0,60,0.00,,,0.00,Wunderground v.1.15,2013-01-04 21:45:00,
2013-01-04 16:50:00,32.8,20.4,30.19,WSW,238,10.0,10.0,60,0.00,,,0.00,Wunderground v.1.15,2013-01-04 21:50:00,
2013-01-04 16:55:00,32.5,20.1,30.19,WSW,240,9.0,20.0,60,0.00,,,0.00,Wunderground v.1.15,2013-01-04 21:55:00,
2013-01-04 17:00:00,32.1,19.8,30.20,WSW,246,8.0,8.0,60,0.00,,,0.00,Wunderground v.1.15,2013-01-04 22:00:00,
2013-01-04 17:05:00,32.1,19.8,30.20,West,275,8.0,10.0,60,0.00,,,0.00,Wunderground v.1.15,2013-01-04 22:05:00,
2013-01-04 17:10:00,32.1,19.8,30.20,WSW,254,9.0,20.0,60,0.00,,,0.00,Wunderground v.1.15,2013-01-04 22:10:00,
2013-01-04 17:15:00,32.0,19.7,30.20,SW,230,9.0,20.0,60,0.00,,,0.00,Wunderground v.1.15,2013-01-04 22:15:00,
2013-01-04 17:20:00,31.8,19.9,30.20,West,272,10.0,10.0,61,0.00,,,0.00,Wunderground v.1.15,2013-01-04 22:20:00,
2013-01-04 17:25:00,31.9,20.0,30.20,West,273,10.0,20.0,61,0.00,,,0.00,Wunderground v.1.15,2013-01-04 22:25:00,
2013-01-04 17:35:00,31.8,19.9,30.21,SW,235,9.0,20.0,61,0.00,,,0.00,Wunderground v.1.15,2013-01-04 22:35:00,
2013-01-04 17:40:00,31.4,19.5,30.21,West,263,8.0,8.0,61,0.00,,,0.00,Wunderground v.1.15,2013-01-04 22:40:00,
2013-01-04 17:45:00,31.2,19.3,30.21,WSW,248,7.0,20.0,61,0.00,,,0.00,Wunderground v.1.15,2013-01-04 22:45:00,
2013-01-04 17:50:00,31.2,19.3,30.22,WSW,251,7.0,20.0,61,0.00,,,0.00,Wunderground v.1.15,2013-01-04 22:50:00,
2013-01-04 17:55:00,31.3,19.4,30.22,WSW,238,9.0,20.0,61,0.00,,,0.00,Wunderground v.1.15,2013-01-04 22:55:00,
2013-01-04 18:00:00,31.0,19.5,30.22,West,262,8.0,9.0,62,0.00,,,0.00,Wunderground v.1.15,2013-01-04 23:00:00,
2013-01-04 18:10:00,30.9,19.4,30.23,West,261,7.0,9.0,62,0.00,,,0.00,Wunderground v.1.15,2013-01-04 23:10:00,
2013-01-04 18:15:00,30.7,19.2,30.22,WSW,240,7.0,9.0,62,0.00,,,0.00,Wunderground v.1.15,2013-01-04 23:15:00,
2013-01-04 18:20:00,30.4,19.3,30.22,WSW,252,7.0,7.0,63,0.00,,,0.00,Wunderground v.1.15,2013-01-04 23:20:00,
2013-01-04 18:25:00,30.2,19.1,30.22,WSW,254,7.0,7.0,63,0.00,,,0.00,Wunderground v.1.15,2013-01-04 23:25:00,
2013-01-04 18:30:00,30.3,19.2,30.23,West,262,7.0,7.0,63,0.00,,,0.00,Wunderground v.1.15,2013-01-04 23:30:00,
2013-01-04 18:40:00,30.3,19.6,30.23,WSW,253,7.0,7.0,64,0.00,,,0.00,Wunderground v.1.15,2013-01-04 23:40:00,
2013-01-04 18:45:00,30.5,19.8,30.23,SSW,210,7.0,7.0,64,0.00,,,0.00,Wunderground v.1.15,2013-01-04 23:45:00,
2013-01-04 18:50:00,30.9,20.1,30.23,West,261,7.0,7.0,64,0.00,,,0.00,Wunderground v.1.15,2013-01-04 23:50:00,
2013-01-04 18:55:00,31.1,20.0,30.23,WSW,245,8.0,12.0,63,0.00,,,0.00,Wunderground v.1.15,2013-01-04 23:55:00,
2013-01-04 19:00:00,31.1,20.3,30.23,WSW,247,9.0,16.0,64,0.00,,,0.00,Wunderground v.1.15,2013-01-05 00:00:00,
2013-01-04 19:10:00,31.2,20.4,30.23,West,261,11.0,20.0,64,0.00,,,0.00,Wunderground v.1.15,2013-01-05 00:10:00,
2013-01-04 19:15:00,31.2,20.4,30.23,WSW,240,11.0,20.0,64,0.00,,,0.00,Wunderground v.1.15,2013-01-05 00:15:00,
2013-01-04 19:20:00,31.3,20.5,30.24,WSW,250,11.0,20.0,64,0.00,,,0.00,Wunderground v.1.15,2013-01-05 00:20:00,
2013-01-04 19:25:00,31.4,21.0,30.24,West,271,11.0,20.0,65,0.00,,,0.00,Wunderground v.1.15,2013-01-05 00:25:00,
2013-01-04 19:30:00,31.4,20.6,30.24,West,268,12.0,20.0,64,0.00,,,0.00,Wunderground v.1.15,2013-01-05 00:30:00,
2013-01-04 19:35:00,31.2,20.8,30.24,WSW,255,12.0,20.0,65,0.00,,,0.00,Wunderground v.1.15,2013-01-05 00:35:00,
2013-01-04 19:40:00,31.2,20.8,30.24,West,268,12.0,20.0,65,0.00,,,0.00,Wunderground v.1.15,2013-01-05 00:40:00,
2013-01-04 19:50:00,31.0,21.3,30.24,WSW,242,12.0,12.0,67,0.00,,,0.00,Wunderground v.1.15,2013-01-05 00:50:00,
2013-01-04 19:55:00,31.0,21.7,30.25,West,267,10.0,20.0,68,0.00,,,0.00,Wunderground v.1.15,2013-01-05 00:55:00,
2013-01-04 20:00:00,31.2,21.5,30.24,WSW,252,10.0,20.0,67,0.00,,,0.00,Wunderground v.1.15,2013-01-05 01:00:00,
2013-01-04 20:05:00,31.1,21.4,30.25,West,273,10.0,22.0,67,0.00,,,0.00,Wunderground v.1.15,2013-01-05 01:05:00,
2013-01-04 20:10:00,31.0,21.7,30.25,WSW,246,10.0,10.0,68,0.00,,,0.00,Wunderground v.1.15,2013-01-05 01:10:00,
2013-01-04 20:15:00,31.0,22.0,30.25,West,274,11.0,11.0,69,0.00,,,0.00,Wunderground v.1.15,2013-01-05 01:15:00,
2013-01-04 20:20:00,31.0,22.0,30.25,WNW,290,11.0,11.0,69,0.00,,,0.00,Wunderground v.1.15,2013-01-05 01:20:00,
2013-01-04 20:25:00,31.0,22.7,30.25,WSW,246,11.0,20.0,71,0.00,,,0.00,Wunderground v.1.15,2013-01-05 01:25:00,
2013-01-04 20:30:00,31.0,23.0,30.25,WSW,255,11.0,11.0,72,0.00,,,0.00,Wunderground v.1.15,2013-01-05 01:30:00,
2013-01-04 20:35:00,31.1,23.5,30.26,WSW,243,11.0,18.0,73,0.00,,,0.00,Wunderground v.1.15,2013-01-05 01:35:00,
2013-01-04 20:45:00,31.0,24.0,30.26,WSW,253,12.0,20.0,75,0.00,,,0.00,Wunderground v.1.15,2013-01-05 01:45:00,
2013-01-04 20:50:00,31.0,24.3,30.26,WSW,250,12.0,20.0,76,0.00,,,0.00,Wunderground v.1.15,2013-01-05 01:50:00,
2013-01-04 20:55:00,31.0,24.3,30.26,WSW,242,12.0,20.0,76,0.00,,,0.00,Wunderground v.1.15,2013-01-05 01:55:00,
2013-01-04 21:00:00,31.0,24.6,30.26,West,261,13.0,20.0,77,0.00,,,0.00,Wunderground v.1.15,2013-01-05 02:00:00,
2013-01-04 21:05:00,31.0,24.6,30.26,WSW,247,11.0,20.0,77,0.00,,,0.00,Wunderground v.1.15,2013-01-05 02:05:00,
2013-01-04 21:20:00,31.0,24.9,30.26,West,259,10.0,10.0,78,0.00,,,0.00,Wunderground v.1.15,2013-01-05 02:20:00,
2013-01-04 21:25:00,31.0,24.9,30.27,SW,232,10.0,11.0,78,0.00,,,0.00,Wunderground v.1.15,2013-01-05 02:25:00,
2013-01-04 21:30:00,31.0,24.9,30.26,West,280,11.0,20.0,78,0.00,,,0.00,Wunderground v.1.15,2013-01-05 02:30:00,
2013-01-04 21:35:00,31.0,24.9,30.27,West,261,12.0,20.0,78,0.00,,,0.00,Wunderground v.1.15,2013-01-05 02:35:00,
2013-01-04 21:40:00,31.0,25.2,30.27,NW,306,11.0,20.0,79,0.00,,,0.00,Wunderground v.1.15,2013-01-05 02:40:00,
2013-01-04 21:45:00,31.0,25.2,30.27,WSW,242,11.0,20.0,79,0.00,,,0.00,Wunderground v.1.15,2013-01-05 02:45:00,
2013-01-04 21:55:00,31.1,25.3,30.28,WNW,297,13.0,20.0,79,0.00,,,0.00,Wunderground v.1.15,2013-01-05 02:55:00,
2013-01-04 22:00:00,31.1,25.3,30.28,SW,223,12.0,20.0,79,0.00,,,0.00,Wunderground v.1.15,2013-01-05 03:00:00,
2013-01-04 22:05:00,31.1,25.3,30.28,WNW,286,11.0,20.0,79,0.00,,,0.00,Wunderground v.1.15,2013-01-05 03:05:00,
2013-01-04 22:10:00,31.0,25.2,30.28,West,271,11.0,20.0,79,0.00,,,0.00,Wunderground v.1.15,2013-01-05 03:10:00,
2013-01-04 22:15:00,31.0,25.2,30.28,West,263,11.0,20.0,79,0.00,,,0.00,Wunderground v.1.15,2013-01-05 03:15:00,
2013-01-04 22:20:00,31.1,25.3,30.29,West,277,11.0,11.0,79,0.00,,,0.00,Wunderground v.1.15,2013-01-05 03:20:00,
2013-01-04 22:30:00,31.1,25.3,30.29,WNW,284,12.0,20.0,79,0.00,,,0.00,Wunderground v.1.15,2013-01-05 03:30:00,
2013-01-04 22:35:00,31.1,25.3,30.29,WSW,250,12.0,20.0,79,0.00,,,0.00,Wunderground v.1.15,2013-01-05 03:35:00,
2013-01-04 22:40:00,31.0,25.2,30.29,WNW,284,11.0,11.0,79,0.00,,,0.00,Wunderground v.1.15,2013-01-05 03:40:00,
2013-01-04 22:45:00,30.9,25.5,30.29,WNW,291,11.0,15.0,80,0.00,,,0.00,Wunderground v.1.15,2013-01-05 03:45:00,
2013-01-04 22:50:00,30.9,25.5,30.29,West,259,10.0,10.0,80,0.00,,,0.00,Wunderground v.1.15,2013-01-05 03:50:00,
2013-01-04 23:00:00,30.9,25.5,30.30,WSW,254,10.0,10.0,80,0.00,,,0.00,Wunderground v.1.15,2013-01-05 04:00:00,
2013-01-04 23:05:00,31.0,25.6,30.30,West,273,11.0,11.0,80,0.00,,,0.00,Wunderground v.1.15,2013-01-05 04:05:00,
2013-01-04 23:10:00,30.8,25.4,30.31,West,261,10.0,20.0,80,0.00,,,0.00,Wunderground v.1.15,2013-01-05 04:10:00,
2013-01-04 23:15:00,30.8,25.4,30.30,WNW,286,10.0,20.0,80,0.00,,,0.00,Wunderground v.1.15,2013-01-05 04:15:00,
2013-01-04 23:20:00,30.8,25.4,30.31,NW,313,12.0,20.0,80,0.00,,,0.00,Wunderground v.1.15,2013-01-05 04:20:00,
2013-01-04 23:25:00,30.7,25.6,30.31,WSW,252,12.0,20.0,81,0.00,,,0.00,Wunderground v.1.15,2013-01-05 04:25:00,
2013-01-04 23:35:00,30.7,25.6,30.31,WNW,289,11.0,13.0,81,0.00,,,0.00,Wunderground v.1.15,2013-01-05 04:35:00,
2013-01-04 23:40:00,30.8,25.7,30.31,SW,234,10.0,20.0,81,0.00,,,0.00,Wunderground v.1.15,2013-01-05 04:40:00,
2013-01-04 23:45:00,30.6,25.5,30.31,West,270,11.0,20.0,81,0.00,,,0.00,Wunderground v.1.15,2013-01-05 04:45:00,
2013-01-04 23:50:00,30.6,25.5,30.31,SSW,208,11.0,20.0,81,0.00,,,0.00,Wunderground v.1.15,2013-01-05 04:50:00,
2013-01-04 23:55:00,30.5,25.7,30.31,WSW,254,12.0,20.0,82,0.00,,,0.00,Wunderground v.1.15,2013-01-05 04:55:00,